TimeCST,TemperatureF,Dew PointF,Humidity,Sea Level PressureIn,VisibilityMPH,Wind Direction,Wind SpeedMPH,Gust SpeedMPH,PrecipitationIn,Events,Conditions,WindDirDegrees,DateUTC
12:15 AM,32.0,14.2,48,30.01,10.0,South,5.8,-,N/A,,Scattered Clouds,170,2014-03-01 06:15:00
12:35 AM,32.0,14.5,49,30.01,10.0,South,4.6,-,N/A,,Scattered Clouds,180,2014-03-01 06:35:00
12:55 AM,31.8,14.2,48,30.01,10.0,South,4.6,-,N/A,,Scattered Clouds,180,2014-03-01 06:55:00
1:15 AM,31.5,14.2,49,30.01,10.0,South,3.5,-,N/A,,Scattered Clouds,180,2014-03-01 07:15:00
1:35 AM,31.3,14.2,49,30.01,10.0,South,3.5,-,N/A,,Mostly Cloudy,170,2014-03-01 07:35:00
1:55 AM,30.9,14.0,50,30.02,10.0,Calm,Calm,-,N/A,,Scattered Clouds,0,2014-03-01 07:55:00
2:15 AM,29.7,16.0,57,30.02,10.0,West,4.6,-,N/A,,Mostly Cloudy,270,2014-03-01 08:15:00
2:35 AM,30.0,16.5,57,30.03,10.0,West,3.5,-,N/A,,Overcast,280,2014-03-01 08:35:00
2:55 AM,29.3,15.6,57,30.03,10.0,Calm,Calm,-,N/A,,Overcast,0,2014-03-01 08:55:00
3:15 AM,29.1,16.9,60,30.03,10.0,Calm,Calm,-,N/A,,Overcast,0,2014-03-01 09:15:00
3:35 AM,30.2,17.2,59,30.02,10.0,SSE,3.5,-,N/A,,Overcast,160,2014-03-01 09:35:00
4:45 AM,30.2,17.6,60,30.05,10.0,WSW,4.6,-,N/A,,Overcast,250,2014-03-01 10:45:00
5:45 AM,32.0,19.4,60,30.08,10.0,NNW,5.8,-,N/A,,Overcast,330,2014-03-01 11:45:00
6:45 AM,28.4,24.8,86,30.10,4.0,NNW,10.4,24.2,N/A,Snow,Light Snow,340,2014-03-01 12:45:00
7:45 AM,26.6,23.0,86,30.14,5.0,NNW,21.9,-,N/A,Snow,Light Snow,340,2014-03-01 13:45:00
8:45 AM,24.8,21.2,86,30.18,4.0,NNW,13.8,28.8,N/A,,Overcast,340,2014-03-01 14:45:00
9:45 AM,24.8,19.4,80,30.18,7.0,NNW,11.5,23.0,N/A,,Overcast,330,2014-03-01 15:45:00
10:45 AM,23.0,15.8,74,30.23,10.0,North,12.7,26.5,N/A,,Overcast,360,2014-03-01 16:45:00
11:45 AM,23.0,14.0,68,30.23,10.0,NNW,10.4,23.0,N/A,,Overcast,340,2014-03-01 17:45:00
12:45 PM,23.0,14.0,68,30.23,10.0,NNW,10.4,21.9,N/A,,Overcast,340,2014-03-01 18:45:00
1:45 PM,23.0,12.2,63,30.22,10.0,NNW,13.8,-,N/A,,Overcast,330,2014-03-01 19:45:00
2:45 PM,21.2,12.2,68,30.24,10.0,North,13.8,-,N/A,,Overcast,350,2014-03-01 20:45:00
3:45 PM,21.2,12.2,68,30.25,10.0,North,11.5,-,N/A,,Overcast,360,2014-03-01 21:45:00
4:45 PM,21.2,12.2,68,30.27,10.0,North,13.8,-,N/A,,Overcast,350,2014-03-01 22:45:00
5:45 PM,19.4,12.2,74,30.28,4.0,North,13.8,-,N/A,Snow,Light Snow,350,2014-03-01 23:45:00
6:45 PM,19.4,14.0,80,30.29,3.0,North,17.3,-,N/A,Snow,Light Snow,350,2014-03-02 00:45:00
8:15 PM,18.9,14.7,84,30.30,2.5,NNW,10.4,-,N/A,Snow,Light Snow,340,2014-03-02 02:15:00
8:35 PM,18.5,14.0,83,30.30,2.5,NNW,11.5,-,N/A,Snow,Light Snow,340,2014-03-02 02:35:00
8:55 PM,18.1,13.6,83,30.31,3.0,NNW,12.7,-,N/A,Snow,Light Snow,340,2014-03-02 02:55:00
9:15 PM,18.1,13.6,83,30.32,2.0,NNW,13.8,-,N/A,Snow,Light Snow,340,2014-03-02 03:15:00
9:35 PM,17.6,13.5,84,30.32,1.2,NNW,15.0,18.4,N/A,Snow,Light Snow,340,2014-03-02 03:35:00
9:55 PM,17.6,13.1,83,30.32,2.5,NNW,12.7,-,N/A,Snow,Light Snow,330,2014-03-02 03:55:00
10:15 PM,17.6,13.3,83,30.31,2.5,NNW,12.7,-,N/A,Snow,Light Snow,330,2014-03-02 04:15:00
10:35 PM,17.4,13.1,83,30.31,3.0,NNW,12.7,-,N/A,Snow,Light Snow,330,2014-03-02 04:35:00
10:55 PM,17.1,12.7,83,30.30,2.0,NNW,15.0,-,N/A,Snow,Light Snow,330,2014-03-02 04:55:00
11:15 PM,16.7,12.2,82,30.30,1.5,NNW,15.0,-,N/A,Snow,Light Snow,330,2014-03-02 05:15:00
11:35 PM,16.5,11.7,81,30.30,4.0,NNW,17.3,-,N/A,Snow,Light Snow,330,2014-03-02 05:35:00
11:55 PM,16.2,11.3,81,30.30,2.0,NNW,13.8,-,N/A,Snow,Light Snow,330,2014-03-02 05:55:00